This demonstration page uses our WeatherBlox Daily Observations layout. Learn more.

Left ArrowRight Arrow

Hourly Observations for May 20, 2017

Temp ( °F °C ) Dew Point ( °F °C ) Humidity (%) Winds ( mph kmh ) Pressure ( in mb ) Visibility ( mi km ) Precip ( " mm )
12:01 am 00:01 Cloudy with Nearby Thunderstorms 49 9.4 47 8.3 93 93 ENE 13 20 29.97 1015 10 16.0934 0 0
12:23 am 00:23 Cloudy with Light Thunderstorms 49 9.4 47 8.3 93 93 ENE 17 28 29.91 1013 10 16.0934 0 0.0254
12:52 am 00:52 Cloudy with Heavy Thunderstorms 48 9 46 8 94 94 ENE 16 26 29.88 1012 2.5 4.02335 0.11 2.794
12:54 am 00:54 Cloudy with Heavy Thunderstorms 49 9.4 47 8.3 93 93 ENE 16 26 29.89 1012 2.5 4.02335 0.12 3.048
1:01 am 01:01 Cloudy with Heavy Rain 49 9.4 47 8.3 93 93 NE 16 26 29.88 1012 3 4.82802 0.04 1.016
1:19 am 01:19 Cloudy with Rain 49 9.4 47 8.3 93 93 ENE 18 30 29.88 1012 5 8.0467 0.09 2.286
1:54 am 01:54 Cloudy with Rain 49 9.4 47 8.3 93 93 ENE 17 28 29.85 1011 4 6.43736 0.15 3.81
2:03 am 02:03 Cloudy with Nearby Thunderstorms 49 9.4 48 8.9 97 97 ENE 13 20 29.85 1011 4 6.43736 0.02 0.508
2:13 am 02:13 Cloudy with Nearby Thunderstorms 50 10 48 8.9 93 93 NNE 8 13 29.85 1011 4 6.43736 0.06 1.524
2:39 am 02:39 Cloudy with Heavy Thunderstorms 50 10 48 8.9 93 93 ENE 14 22 29.83 1010 1.75 2.816345 0.18 4.572
2:54 am 02:54 Cloudy with Heavy Thunderstorms 50 10 48 8.9 93 93 ENE 16 26 29.81 1009 2 3.21868 0.45 11.43
3:11 am 03:11 Cloudy with Nearby Thunderstorms 51 10.6 48 8.9 89 89 E 22 35 29.8 1009 1.75 2.816345 0.25 6.35
3:16 am 03:16 Cloudy with Nearby Thunderstorms 51 10.6 48 8.9 89 89 E 17 28 29.8 1009 3 4.82802 0.31 7.874
3:26 am 03:26 Cloudy with Light Rain 51 10.6 48 8.9 89 89 ENE 14 22 29.8 1009 7 11.26538 0.32 8.128
3:39 am 03:39 Cloudy with Nearby Thunderstorms 51 10.6 48 8.9 89 89 ENE 14 22 29.8 1009 10 16.0934 0.32 8.128
3:54 am 03:54 Cloudy 50 10 48 8.9 93 93 NE 12 19 29.8 1009 10 16.0934 0.32 8.128
4:49 am 04:49 Cloudy 50 10 47 8.3 89 89 NE 14 22 29.78 1008 10 16.0934 0 0.0254
4:57 am 04:57 Cloudy 49 9.4 48 8.9 97 97 NNE 12 19 29.77 1008 8 12.87472 0 0
5:54 am 05:54 Cloudy with Light Rain 49 9.4 48 8.9 97 97 NNE 14 22 29.77 1008 3 4.82802 0.02 0.508
6:23 am 06:23 Cloudy with Light Rain 49 9.4 48 8.9 97 97 NE 13 20 29.77 1008 2.5 4.02335 0.01 0.254
6:54 am 06:54 Cloudy with Light Rain 49 9.4 48 8.9 97 97 N 10 17 29.78 1008 2.5 4.02335 0.02 0.508
7:26 am 07:26 Mostly Cloudy with Rain 49 9.4 48 8.9 97 97 NNW 10 17 29.8 1009 1 1.60934 0.03 0.762
7:31 am 07:31 Cloudy with Heavy Rain 49 9.4 48 8.9 97 97 NNW 10 17 29.8 1009 1 1.60934 0.08 2.032
7:47 am 07:47 Cloudy with Light Rain 50 10 48 8.9 93 93 NNW 13 20 29.8 1009 2 3.21868 0.19 4.826
7:54 am 07:54 Cloudy with Light Rain 50 10 48 8.9 93 93 NNW 13 20 29.79 1009 3 4.82802 0.19 4.826
8:12 am 08:12 Cloudy with Light Rain 50 10 49 9.4 96 96 N 16 26 29.77 1008 2.5 4.02335 0 0.0254
8:23 am 08:23 Cloudy with Light Rain 50 10 49 9.4 96 96 NNW 15 24 29.77 1008 3 4.82802 0 0.0254
8:32 am 08:32 Cloudy with Mist and Fog 50 10 49 9.4 96 96 NNW 14 22 29.77 1008 4 6.43736 0 0.0254
8:54 am 08:54 Cloudy 51 10.6 49 9.4 92 92 NNW 14 22 29.77 1008 10 16.0934 0 0.0254
9:54 am 09:54 Cloudy with Mist and Fog 53 11.7 50 10 89 89 N 14 22 29.76 1008 4 6.43736 0 0
10:11 am 10:11 Cloudy 53 11.7 50 10 89 89 N 12 19 29.77 1008 8 12.87472 0 0
10:51 am 10:51 Cloudy with Mist and Fog 54 12 50 10 88 88 NW 7 11 29.8 1009 2 3.21868 0 0
10:54 am 10:54 Cloudy with Mist and Fog 53 11.7 50 10 89 89 W 8 13 29.79 1009 2 3.21868 0 0
11:19 am 11:19 Cloudy with Light Rain 53 11.7 50 10 89 89 W 10 17 29.8 1009 2 3.21868 0 0.0254
11:39 am 11:39 Cloudy with Mist and Fog 54 12.2 50 10 87 87 W 13 20 29.8 1009 4 6.43736 0 0.0254
11:51 am 11:51 Cloudy with Mist and Fog 54 12 50 10 88 88 W 10 17 29.8 1009 3 4.82802 0 0.0254
11:54 am 11:54 Cloudy with Mist and Fog 53 11.7 51 10.6 93 93 W 13 20 29.79 1009 3 4.82802 0 0.0254
11:59 am 11:59 Cloudy with Mist and Fog 53 11.7 50 10 89 89 W 12 19 29.8 1009 2.5 4.02335 0 0
12:09 pm 12:09 Cloudy with Mist and Fog 53 11.7 50 10 89 89 W 13 20 29.8 1009 4 6.43736 0 0
12:29 pm 12:29 Cloudy 54 12.2 49 9.4 83 83 W 14 22 29.8 1009 10 16.0934 0 0
12:54 pm 12:54 Cloudy 54 12.2 48 8.9 80 80 W 13 20 29.81 1010 10 16.0934 0 0
1:01 pm 13:01 Cloudy 54 12.2 48 8.9 80 80 W 13 20 29.83 1010 10 16.0934 0 0
1:37 pm 13:37 Cloudy 53 11.7 47 8.3 80 80 W 13 20 29.83 1010 9 14.48406 0 0.0254
1:54 pm 13:54 Cloudy 53 11.7 47 8.3 80 80 WNW 16 26 29.83 1010 9 14.48406 0 0.0254
2:07 pm 14:07 Cloudy 53 11.7 48 8.9 83 83 W 16 26 29.83 1010 9 14.48406 0 0
2:54 pm 14:54 Cloudy 53 11.7 45 7.2 74 74 W 13 20 29.85 1011 10 16.0934 0 0.0254
3:54 pm 15:54 Cloudy 53 11.7 45 7.2 74 74 W 14 22 29.85 1011 10 16.0934 0 0
4:54 pm 16:54 Cloudy 52 11.1 44 6.7 75 75 W 15 24 29.86 1011 10 16.0934 0 0.0254
5:36 pm 17:36 Cloudy 51 10.6 44 6.7 77 77 W 14 22 29.88 1012 10 16.0934 0 0
5:54 pm 17:54 Cloudy 52 11.1 44 6.7 75 75 W 15 24 29.88 1012 10 16.0934 0 0
6:07 pm 18:07 Cloudy 51 10.6 44 6.7 77 77 W 16 26 29.88 1012 10 16.0934 0 0
6:16 pm 18:16 Cloudy 52 11.1 44 6.7 75 75 W 14 22 29.88 1012 10 16.0934 0 0
6:31 pm 18:31 Cloudy 51 10.6 43 6.1 74 74 W 16 26 29.88 1012 10 16.0934 0 0
6:45 pm 18:45 Cloudy 50 10 44 6.7 80 80 W 14 22 29.88 1012 10 16.0934 0 0
6:54 pm 18:54 Cloudy 51 10.6 43 6.1 74 74 W 13 20 29.89 1012 10 16.0934 0 0
7:54 pm 19:54 Cloudy with Light Rain 49 9.4 44 6.7 83 83 WNW 15 24 29.9 1013 7 11.26538 0 0.0254
8:12 pm 20:12 Cloudy 48 8.9 44 6.7 86 86 W 8 13 29.94 1014 10 16.0934 0 0.0254
8:49 pm 20:49 Cloudy with Light Rain 48 9 45 7 87 87 W 14 22 29.94 1014 7 11.26538 0 0.0254
8:54 pm 20:54 Cloudy with Light Rain 48 8.9 44 6.7 86 86 WNW 13 20 29.92 1013 6 9.65604 0 0.0254
9:54 pm 21:54 Cloudy 48 8.9 44 6.7 86 86 WNW 9 15 29.94 1014 10 16.0934 0.01 0.254
10:29 pm 22:29 Cloudy with Light Rain 47 8.3 44 6.7 90 90 WNW 10 17 29.97 1015 10 16.0934 0 0.0254
10:45 pm 22:45 Cloudy with Light Rain 47 8.3 43 6.1 86 86 WNW 14 22 30 1016 10 16.0934 0 0.0254
10:54 pm 22:54 Cloudy with Light Rain 47 8.3 43 6.1 86 86 WNW 15 24 29.97 1015 10 16.0934 0 0.0254
11:03 pm 23:03 Cloudy 47 8.3 43 6.1 86 86 WNW 13 20 30 1016 10 16.0934 0 0.0254
11:54 pm 23:54 Cloudy 46 7.8 41 5 83 83 WNW 17 28 29.98 1015 10 16.0934 0 0.0254

Powered by AerisWeather